CZ-8A R/B, 68138

Orbit data source: Space-Track

CZ-8A R/B, 68138 is space debris in LEO originally from a launch on Thu, 12 Mar 2026 UTC launched from the Wenchang Satellite Launch Center (WSC). Debris objects in space refer to the collection of defunct objects orbiting the Earth. Examples of debris include non-operational satellites, rocket bodies, and fragments generated from explosions, collisions, or faulty payload assembly.

Loading next visibility...
Identifier
68138, 2026-047K
Orbit
LEO
Country
Flag of CNCN / PRC
Related business
Manufacturer
CALT
Mission
Spacecraft
Bus & Motor
CZ-8A STAGE 2, Unknown motor
Mass
~2,800 kg wet, ~2,800 kg dry
Launch date (UTC)
2026-03-12 (3 months ago)
Launch vehicle
Unknown
Launch site
Wenchang Satellite Launch Center (WSC)
Object type
Payload
Rocket body
Debris
Shape & HBR
Unknown shape, 4.3 m
Radar Cross Section
Large (>1 m²)

Expand to show TLE details & history
Last TLE update: 22 hours ago

TLE from 22 hours ago
0 CZ-8A R/B
1 68138U 26047K   26170.93747272  .00000026  00000-0  97143-4 0  9998
2 68138  49.9532   7.8944 0045010 129.3169 231.1741 14.12247518 14002
Epoch: 2026-06-19T22:29Z
TLE epoch observation values (Epoch: 2026-06-19T22:29:57.643Z)
Latitude
-0.00005°
Longitude
122.2449°
Altitude
872.702 km
Speed
7.407 km/s
True Right ascension
00h 31m 34s
True Declination
0° 00' 00"
Sunlit
Object was in daylight at epoch
Visualization orbit readout
Latitude
Unknown
Longitude
Unknown
Altitude
Unknown
Speed
Unknown
Apparent Right ascension
Unknown
Apparent Declination
Unknown
Sunlit
N/A
Visualization observer readout
Local Sidereal Time
07:21:20
Azimuth
Unknown
Elevation
Unknown
Doppler factor
Unknown
Orbital elements
Apogee altitude
884.977 km
Perigee altitude
819.888 km
Semi-major axis
7,230.569 km
Eccentricity
0.0045
Inclination
49.9532°
RAAN
7.8944°
Arg. of periapsis
129.3169°
True anomaly
230.7737°
Mean anomaly
231.1741°
Eccentric anomaly
230.97376°
Mean motion
3.53008 °/min
Orbital period
101.98 mins
BSTAR
0.000097143
Loading maneuver chart data...
Computing Atmospheric mass density...
Loading historical data...
Loading historical data...
Loading historical data...
Loading historical data...
Loading historical data...
Loading historical data...
Loading historical data...

Documentation

Showing up to 5 results
|